Regional Weather Roundup
Issued by NWS Cleveland, OH

Home | Current Version | Previous Version | Graphics & Text | Print | Product List | Glossary Off
Versions: 1 2 3 4 5 6 7 8 9 10 11 12 13 14 15 16 17 18 19 20 21 22 23 24 25 26 27 28 29 30 31 32 33 34 35 36 37 38 39 40 41 42 43 44 45 46 47 48 49 50

000
ASUS41 KCLE 010812
RWRCLE
OHIO REGIONAL WEATHER ROUNDUP
NATIONAL WEATHER SERVICE WILMINGTON, OH
400 AM EDT WED JUN 01 2016

NOTE: "FAIR" INDICATES FEW OR NO CLOUDS BELOW 12,000 FEET WITH NO
SIGNIFICANT WEATHER AND/OR OBSTRUCTIONS TO VISIBILITY.

OHZ001>008-015>018-024>027-034-035-043-044-010900-
   NORTHWEST OHIO

CITY           SKY/WX    TMP DP  RH WIND       PRES   REMARKS
DEFIANCE       FAIR      63  53  70 NE6       30.02R
FINDLAY        FAIR      65  49  56 E9        30.00S
TOLEDO EXPRESS FAIR      58  53  84 CALM      30.02S
TOLEDO EXEC    FAIR      63  54  72 NE7       30.03F
LIMA           FAIR      62  50  64 E5        30.00S
$$

OHZ009>014-019>023-028>033-038-089-010900-
   NORTHEAST OHIO

CITY           SKY/WX    TMP DP  RH WIND       PRES   REMARKS
CLE-HOPKINS    MOCLDY    64  50  60 N5        30.04F
CLE-LAKEFRONT  FAIR      64  53  67 NE6       30.01F
CUY CO. ARPT   NOT AVBL
LORAIN-ELYRIA  FAIR      61  51  70 E3        30.03F
ASHTABULA      FAIR      54  53  97 E3        30.06R
AKRON-CANTON   FAIR      61  50  67 NE7       30.02F
WOOSTER        FAIR      60  50  69 E5        30.03F
MANSFIELD      FAIR      63  49  60 E5        30.03S
YOUNGSTOWN     MOCLDY    56  50  80 E5        30.04S
$$

OHZ042-051>053-060>062-070>072-077>081-010900-
  SOUTHWEST OHIO

CITY           SKY/WX    TMP DP  RH WIND       PRES   REMARKS
CINC-COVINGTON FAIR      68  62  81 NE3       29.97S
CINC-LUNKEN    FAIR      61  61 100 CALM      29.98R FOG
HAMILTON       MOCLDY    63  61  93 CALM      29.98S
DAYTON         FAIR      67  56  67 E8        30.00S
WRIGHT-PAT AFB FAIR      68  59  73 NW2       29.98F
DAYTON GENERAL FAIR      69  58  67 E9        29.97F
WILMINGTON     FAIR      67  60  78 CALM      29.99S
$$

OHZ036-037-039>041-045>050-054>059-063>069-073>076-082>088-010900-
  CENTRAL AND SOUTHEAST OHIO

CITY           SKY/WX    TMP DP  RH WIND       PRES   REMARKS
COLUMBUS       FAIR      66  54  65 NE3       29.99R
OSU AIRPORT    FAIR      64  54  69 N5        30.00R
BOLTON FIELD   FAIR      67  57  70 E3        30.00S
RICKENBACK AFB FAIR      66  58  76 NE5       29.98S
NEWARK         FAIR      62  55  77 CALM      30.00S
MARION         FAIR      60  52  74 CALM      30.01F
LANCASTER      FAIR      63  59  87 CALM      30.00S
ZANESVILLE     FAIR      65  56  72 CALM      30.00S
NEW PHILLY     FAIR      63  54  72 CALM      30.02F
$$




USA.gov is the U.S. government's official web portal to all federal, state and local government web resources and services.